Location: Allen Lane School
(37.8198°N, 89.7382°W)
Time: 21:08:15
(UTC+00:00)

Cosmos 44 - Pass Details

Date: 09 July 2022
Orbit: 595 x 766 km, 65.1° (Epoch: 13 August)

Event Time Altitude Azimuth Distance (km) Brightness Sun altitude
Exits shadow 04:44:39 33° 50° (NE) 1,078 4.4 -27.0°
Drops below altitude 10° 04:47:12 10° 38° (NE) 2,001 6.0 -27.2°
Sets 04:49:27 0° 35° (NE) 2,890 7.0 -27.3°
